Zurück zum Katalog

COSMOS 2257

AktivMilitärPO
NORAD 22692·PAYLOAD·🇷🇺 Russia

Gestartet Jun 24, 1993 von Plesetsk Cosmodrome

Loading…

Nächste Überflüge (nächste 24 Stunden)

TLE

AktuellSource: Space-Track

Epoche: Sep 14, 2026, 04:13 UTC

1 22692U 93038F   26257.17624015  .00000028  00000-0  99197-4 0  9991
2 22692  82.5824 181.8552 0008613 143.1493 217.0191 12.62261080531014

Verfolge COSMOS 2257 in Echtzeit mit AllMySat

Download on the App Store